KC7FQC Weather Reports


time (UTC)temp
C
wind
direction
speed
KPH
gust
KPH
rain 1hr
cm
rain 24hr
cm
rain mn
cm
humidity
%
barometer
mb
20191115160610 18 67 0.0 0.0 0.00 0.00 0.00 40 1017.5
20191115160110 18 67 0.0 0.0 0.00 0.00 0.00 43 1017.4
20191115155626 17 67 0.0 3.2 0.00 0.00 0.00 44 1017.5
20191115155110 17 67 0.0 3.2 0.00 0.00 0.00 45 1017.4
20191115154626 16 67 1.6 3.2 0.00 0.00 0.00 46 1017.5
20191115154110 16 67 0.0 3.2 0.00 0.00 0.00 49 1017.4
20191115153626 15 67 3.2 4.8 0.00 0.00 0.00 50 1017.5
20191115153110 15 67 3.2 4.8 0.00 0.00 0.00 52 1017.2
20191115152611 14 67 0.0 0.0 0.00 0.00 0.00 54 1017.3
20191115152111 13 67 0.0 1.6 0.00 0.00 0.00 53 1017.2
20191115151610 13 67 0.0 1.6 0.00 0.00 0.00 54 1017.2
20191115151110 13 67 0.0 1.6 0.00 0.00 0.00 55 1017.1
20191115150626 12 67 0.0 1.6 0.00 0.00 0.00 57 1017.1
20191115150110 12 67 0.0 1.6 0.00 0.00 0.00 56 1017.1
20191115145625 12 67 0.0 1.6 0.00 0.00 0.00 56 1017.2
20191115145125 12 67 0.0 1.6 0.00 0.00 0.00 57 1017.1
20191115144610 12 67 0.0 1.6 0.00 0.00 0.00 57 1017.1
20191115144110 12 67 0.0 0.0 0.00 0.00 0.00 58 1017.0
20191115143626 12 67 0.0 1.6 0.00 0.00 0.00 59 1016.9
20191115143110 12 67 0.0 1.6 0.00 0.00 0.00 58 1016.9
20191115142611 12 27 0.0 0.0 0.00 0.00 0.00 58 1016.9
20191115142129 12 49 0.0 0.0 0.00 0.00 0.00 57 1016.8
20191115141626 12 172 0.0 0.0 0.00 0.00 0.00 58 1016.8
20191115141126 12 172 0.0 0.0 0.00 0.00 0.00 59 1016.8
20191115140626 11 172 0.0 3.2 0.00 0.00 0.00 59 1016.8
20191115140126 11 172 0.0 3.2 0.00 0.00 0.00 60 1016.7
20191115135610 11 172 0.0 3.2 0.00 0.00 0.00 60 1016.7
20191115135126 11 172 0.0 0.0 0.00 0.00 0.00 62 1016.7
20191115134611 11 172 0.0 0.0 0.00 0.00 0.00 64 1016.7
20191115134110 11 172 0.0 0.0 0.00 0.00 0.00 63 1016.8
20191115133610 11 172 0.0 0.0 0.00 0.00 0.00 63 1016.8
20191115133125 11 172 0.0 0.0 0.00 0.00 0.00 62 1016.7
20191115132610 11 172 0.0 0.0 0.00 0.00 0.00 62 1016.7
20191115132110 11 172 0.0 0.0 0.00 0.00 0.00 62 1016.7
20191115131626 11 172 0.0 0.0 0.00 0.00 0.00 62 1016.6
20191115131110 11 172 0.0 0.0 0.00 0.00 0.00 62 1016.5
20191115130610 11 172 0.0 0.0 0.00 0.00 0.00 61 1016.5
20191115130112 11 172 0.0 0.0 0.00 0.00 0.00 61 1016.5
20191115125610 11 172 0.0 0.0 0.00 0.00 0.00 61 1016.7
20191115125126 11 172 0.0 0.0 0.00 0.00 0.00 61 1016.7
20191115124626 11 172 0.0 1.6 0.00 0.00 0.00 61 1016.7
20191115124111 11 172 0.0 1.6 0.00 0.00 0.00 61 1016.7
20191115123610 11 172 0.0 0.0 0.00 0.00 0.00 61 1016.6
20191115123126 11 172 0.0 0.0 0.00 0.00 0.00 61 1016.6
20191115122626 11 172 0.0 0.0 0.00 0.00 0.00 62 1016.6
20191115122126 11 172 0.0 0.0 0.00 0.00 0.00 61 1016.6
20191115121626 11 172 0.0 1.6 0.00 0.00 0.00 61 1016.6
20191115121110 11 172 0.0 1.6 0.00 0.00 0.00 61 1016.5
20191115120611 11 172 0.0 0.0 0.00 0.00 0.00 61 1016.6
20191115120126 11 172 0.0 0.0 0.00 0.00 0.00 61 1016.6
20191115115610 11 172 0.0 0.0 0.00 0.00 0.00 61 1016.8
20191115115125 12 172 0.0 0.0 0.00 0.00 0.00 61 1016.9
20191115114610 12 172 0.0 0.0 0.00 0.00 0.00 60 1016.9
20191115114126 12 172 0.0 0.0 0.00 0.00 0.00 60 1016.9
20191115113610 12 172 0.0 0.0 0.00 0.00 0.00 59 1016.8
20191115113125 12 172 0.0 0.0 0.00 0.00 0.00 58 1016.7
20191115112610 12 172 0.0 0.0 0.00 0.00 0.00 58 1016.6
20191115112125 12 172 0.0 0.0 0.00 0.00 0.00 58 1016.6
20191115111625 12 172 0.0 0.0 0.00 0.00 0.00 56 1016.5
20191115111110 13 172 0.0 0.0 0.00 0.00 0.00 56 1016.7
20191115110610 13 172 0.0 0.0 0.00 0.00 0.00 56 1016.6
20191115110126 13 172 0.0 0.0 0.00 0.00 0.00 54 1016.7
20191115105610 13 172 0.0 0.0 0.00 0.00 0.00 54 1016.7
20191115105110 13 172 0.0 0.0 0.00 0.00 0.00 53 1016.7
20191115104625 13 172 0.0 0.0 0.00 0.00 0.00 53 1016.8
20191115104125 13 172 0.0 0.0 0.00 0.00 0.00 54 1016.8
20191115103610 13 172 0.0 0.0 0.00 0.00 0.00 53 1016.8
20191115103110 13 172 0.0 0.0 0.00 0.00 0.00 53 1016.8
20191115102625 13 172 0.0 0.0 0.00 0.00 0.00 52 1016.9
20191115102110 13 172 0.0 0.0 0.00 0.00 0.00 53 1017.0
20191115101610 13 172 0.0 0.0 0.00 0.00 0.00 52 1017.0
20191115101125 13 172 0.0 0.0 0.00 0.00 0.00 52 1017.0
20191115100625 13 172 0.0 0.0 0.00 0.00 0.00 53 1017.1
20191115100125 13 172 0.0 0.0 0.00 0.00 0.00 53 1017.1
20191115095625 13 172 0.0 0.0 0.00 0.00 0.00 53 1017.1
20191115095110 13 172 0.0 0.0 0.00 0.00 0.00 52 1017.1
20191115094610 13 172 0.0 0.0 0.00 0.00 0.00 50 1017.2
20191115094125 13 172 0.0 0.0 0.00 0.00 0.00 50 1017.1
20191115093610 14 172 0.0 3.2 0.00 0.00 0.00 50 1017.1
20191115093110 13 172 0.0 3.2 0.00 0.00 0.00 50 1017.0
20191115092610 13 172 1.6 3.2 0.00 0.00 0.00 51 1017.1
20191115092126 13 172 0.0 1.6 0.00 0.00 0.00 52 1017.1
20191115091625 13 172 0.0 1.6 0.00 0.00 0.00 52 1017.1
20191115091110 13 172 0.0 1.6 0.00 0.00 0.00 52 1017.1
20191115090625 13 172 0.0 0.0 0.00 0.00 0.00 52 1017.1
20191115090110 13 172 0.0 0.0 0.00 0.00 0.00 53 1017.1
20191115085610 13 172 0.0 0.0 0.00 0.00 0.00 53 1016.9
20191115085110 13 172 0.0 0.0 0.00 0.00 0.00 52 1016.9
20191115084610 13 172 0.0 0.0 0.00 0.00 0.00 53 1016.9
20191115084125 13 172 0.0 0.0 0.00 0.00 0.00 52 1016.9
20191115083610 14 172 0.0 0.0 0.00 0.00 0.00 53 1017.1
20191115083110 14 172 0.0 0.0 0.00 0.00 0.00 53 1017.0
20191115082626 14 172 0.0 0.0 0.00 0.00 0.00 52 1016.9
20191115082125 14 172 0.0 0.0 0.00 0.00 0.00 52 1017.0
20191115081610 14 172 0.0 0.0 0.00 0.00 0.00 51 1017.1
20191115081125 14 172 0.0 0.0 0.00 0.00 0.00 51 1017.1
20191115080610 14 172 0.0 0.0 0.00 0.00 0.00 50 1017.1
20191115080110 14 172 0.0 0.0 0.00 0.00 0.00 50 1017.1
20191115075625 14 172 0.0 0.0 0.00 0.00 0.00 50 1017.1
20191115075125 15 172 0.0 0.0 0.00 0.00 0.00 50 1017.2
20191115074625 15 172 0.0 0.0 0.00 0.00 0.00 49 1017.1
20191115074125 15 172 0.0 0.0 0.00 0.00 0.00 49 1017.0
20191115073610 15 172 0.0 0.0 0.00 0.00 0.00 48 1017.1
20191115073126 15 172 0.0 0.0 0.00 0.00 0.00 47 1017.2
20191115072610 15 172 0.0 0.0 0.00 0.00 0.00 47 1017.3
20191115072110 15 172 0.0 0.0 0.00 0.00 0.00 47 1017.2
20191115071625 15 172 0.0 0.0 0.00 0.00 0.00 46 1017.1
20191115071110 16 172 0.0 0.0 0.00 0.00 0.00 46 1017.0
20191115070610 16 172 0.0 1.6 0.00 0.00 0.00 47 1016.9
20191115070125 16 172 0.0 1.6 0.00 0.00 0.00 46 1016.8
20191115065625 16 172 0.0 1.6 0.00 0.00 0.00 46 1016.8
20191115065110 16 172 0.0 1.6 0.00 0.00 0.00 46 1016.9
20191115064610 16 172 1.6 1.6 0.00 0.00 0.00 46 1016.9
20191115064125 15 172 0.0 0.0 0.00 0.00 0.00 47 1016.9
20191115063610 15 172 0.0 0.0 0.00 0.00 0.00 47 1016.8
20191115063110 15 172 0.0 0.0 0.00 0.00 0.00 47 1016.9
20191115062610 16 172 0.0 0.0 0.00 0.00 0.00 47 1017.0
20191115062125 16 172 0.0 1.6 0.00 0.00 0.00 47 1017.0
20191115061610 16 172 0.0 3.2 0.00 0.00 0.00 47 1017.1
20191115061110 16 172 0.0 3.2 0.00 0.00 0.00 47 1017.0
20191115060625 16 172 0.0 1.6 0.00 0.00 0.00 47 1016.9
20191115060125 16 172 0.0 0.0 0.00 0.00 0.00 47 1017.0
20191115055610 16 172 0.0 0.0 0.00 0.00 0.00 46 1016.8
20191115055110 16 172 0.0 1.6 0.00 0.00 0.00 45 1016.7
20191115054610 16 172 0.0 3.2 0.00 0.00 0.00 45 1016.7
20191115054110 16 172 1.6 4.8 0.00 0.00 0.00 45 1016.7
20191115053610 16 172 3.2 4.8 0.00 0.00 0.00 45 1016.7
20191115053125 16 172 1.6 3.2 0.00 0.00 0.00 45 1016.7
20191115052625 16 172 1.6 3.2 0.00 0.00 0.00 46 1016.7
20191115052110 16 172 0.0 3.2 0.00 0.00 0.00 46 1016.7
20191115051610 16 172 0.0 3.2 0.00 0.00 0.00 45 1016.6
20191115051125 17 172 1.6 3.2 0.00 0.00 0.00 45 1016.6
20191115050627 17 172 0.0 3.2 0.00 0.00 0.00 45 1016.6
20191115050125 17 172 0.0 0.0 0.00 0.00 0.00 45 1016.5
20191115045610 17 172 0.0 0.0 0.00 0.00 0.00 45 1016.3
20191115045110 17 172 0.0 0.0 0.00 0.00 0.00 46 1016.3
20191115044610 17 172 0.0 0.0 0.00 0.00 0.00 46 1016.3
20191115044109 17 172 0.0 0.0 0.00 0.00 0.00 47 1016.4
20191115043625 17 172 0.0 0.0 0.00 0.00 0.00 48 1016.4
20191115043125 17 172 0.0 0.0 0.00 0.00 0.00 48 1016.4
20191115042626 17 172 0.0 0.0 0.00 0.00 0.00 48 1016.3
20191115042110 17 172 0.0 0.0 0.00 0.00 0.00 49 1016.3
20191115041609 17 172 0.0 0.0 0.00 0.00 0.00 50 1016.4
20191115041125 17 172 0.0 0.0 0.00 0.00 0.00 49 1016.3
20191115040609 17 172 0.0 0.0 0.00 0.00 0.00 49 1016.3
20191115040124 17 172 0.0 0.0 0.00 0.00 0.00 49 1016.2
20191115035625 17 172 0.0 0.0 0.00 0.00 0.00 48 1015.8
20191115035125 17 172 0.0 0.0 0.00 0.00 0.00 48 1015.8
20191115034609 18 172 0.0 0.0 0.00 0.00 0.00 48 1015.9
20191115034125 18 172 0.0 0.0 0.00 0.00 0.00 47 1015.9
20191115033625 18 172 0.0 0.0 0.00 0.00 0.00 47 1015.8
20191115033109 18 172 0.0 0.0 0.00 0.00 0.00 47 1015.7
20191115032625 18 172 0.0 0.0 0.00 0.00 0.00 47 1015.6
20191115032109 18 172 0.0 0.0 0.00 0.00 0.00 46 1015.6
20191115031625 18 172 0.0 0.0 0.00 0.00 0.00 46 1015.6
20191115031109 18 172 0.0 0.0 0.00 0.00 0.00 45 1015.6
20191115030609 18 172 0.0 0.0 0.00 0.00 0.00 44 1015.6
20191115030109 18 172 0.0 0.0 0.00 0.00 0.00 44 1015.5
20191115025609 18 172 0.0 0.0 0.00 0.00 0.00 44 1015.0
20191115025109 19 172 0.0 0.0 0.00 0.00 0.00 43 1015.1
20191115024609 19 172 0.0 0.0 0.00 0.00 0.00 43 1015.2
20191115024109 19 172 0.0 0.0 0.00 0.00 0.00 42 1015.2
20191115023625 19 172 0.0 0.0 0.00 0.00 0.00 42 1015.1
20191115023109 20 172 0.0 0.0 0.00 0.00 0.00 42 1015.1
20191115022625 20 172 0.0 0.0 0.00 0.00 0.00 41 1015.1
20191115022109 20 172 0.0 0.0 0.00 0.00 0.00 41 1015.0
20191115021609 20 172 0.0 0.0 0.00 0.00 0.00 41 1015.0
20191115021109 20 172 0.0 0.0 0.00 0.00 0.00 40 1015.0
20191115020609 21 172 0.0 0.0 0.00 0.00 0.00 39 1015.0
20191115020109 21 172 0.0 0.0 0.00 0.00 0.00 39 1015.0
20191115015625 21 172 0.0 0.0 0.00 0.00 0.00 38 1014.8
20191115015109 21 172 0.0 0.0 0.00 0.00 0.00 38 1014.7
20191115014625 21 172 0.0 0.0 0.00 0.00 0.00 37 1014.6
20191115014109 22 172 0.0 0.0 0.00 0.00 0.00 36 1014.6
20191115013625 22 172 0.0 0.0 0.00 0.00 0.00 35 1014.6
20191115013125 22 172 0.0 0.0 0.00 0.00 0.00 35 1014.6
20191115012609 22 172 0.0 0.0 0.00 0.00 0.00 35 1014.7
20191115012109 23 172 0.0 0.0 0.00 0.00 0.00 32 1014.7
20191115011625 23 172 0.0 0.0 0.00 0.00 0.00 33 1014.6
20191115011125 23 172 0.0 0.0 0.00 0.00 0.00 32 1014.6
20191115010609 24 172 0.0 0.0 0.00 0.00 0.00 31 1014.6
20191115010125 24 172 0.0 0.0 0.00 0.00 0.00 30 1014.7
20191115005609 25 172 0.0 0.0 0.00 0.00 0.00 29 1014.8
20191115005125 25 172 0.0 0.0 0.00 0.00 0.00 29 1014.8
20191115004610 25 172 0.0 0.0 0.00 0.00 0.00 28 1014.7
20191115004109 25 172 0.0 0.0 0.00 0.00 0.00 28 1014.7
20191115003625 26 172 0.0 0.0 0.00 0.00 0.00 27 1014.8
20191115003110 26 172 0.0 0.0 0.00 0.00 0.00 27 1014.7
20191115002625 26 172 0.0 0.0 0.00 0.00 0.00 26 1014.9
20191115002109 27 172 0.0 0.0 0.00 0.00 0.00 25 1014.8
20191115001625 27 172 0.0 0.0 0.00 0.00 0.00 23 1014.6
20191115001125 27 172 0.0 0.0 0.00 0.00 0.00 23 1014.6
20191115000609 27 172 0.0 0.0 0.00 0.00 0.00 22 1014.6
20191115000125 27 172 0.0 0.0 0.00 0.00 0.00 22 1014.6
20191114235625 27 172 0.0 1.6 0.00 0.00 0.00 22 1014.6
20191114235109 27 172 0.0 3.2 0.00 0.00 0.00 22 1014.6
20191114234609 27 172 0.0 3.2 0.00 0.00 0.00 21 1014.6
20191114234109 27 172 0.0 0.0 0.00 0.00 0.00 22 1014.6
20191114233625 28 172 0.0 0.0 0.00 0.00 0.00 21 1014.7
20191114233125 28 172 0.0 0.0 0.00 0.00 0.00 21 1014.7
20191114232609 28 172 0.0 1.6 0.00 0.00 0.00 21 1014.7
20191114232124 28 172 0.0 3.2 0.00 0.00 0.00 21 1014.6
20191114231609 28 172 0.0 4.8 0.00 0.00 0.00 21 1014.6
20191114231109 28 172 3.2 4.8 0.00 0.00 0.00 21 1014.6
20191114230624 28 172 1.6 4.8 0.00 0.00 0.00 21 1014.6
20191114230124 28 172 1.6 4.8 0.00 0.00 0.00 21 1014.6
20191114225609 28 172 0.0 3.2 0.00 0.00 0.00 21 1014.6
20191114225125 28 172 0.0 4.8 0.00 0.00 0.00 21 1014.7
20191114224625 28 172 0.0 4.8 0.00 0.00 0.00 21 1014.8
20191114224125 28 172 1.6 4.8 0.00 0.00 0.00 22 1014.9
20191114223624 28 172 1.6 6.4 0.00 0.00 0.00 21 1015.0
20191114223110 28 172 0.0 6.4 0.00 0.00 0.00 22 1014.9
20191114222625 28 172 0.0 6.4 0.00 0.00 0.00 22 1014.9
20191114222109 28 172 4.8 6.4 0.00 0.00 0.00 21 1014.7
20191114221609 28 172 4.8 6.4 0.00 0.00 0.00 21 1014.8
20191114221109 28 172 3.2 4.8 0.00 0.00 0.00 21 1014.8
20191114220609 29 172 1.6 8.0 0.00 0.00 0.00 21 1015.0
20191114220109 29 172 0.0 8.0 0.00 0.00 0.00 21 1015.2
20191114215609 29 171 1.6 4.8 0.00 0.00 0.00 21 1015.0
20191114215124 29 171 0.0 4.8 0.00 0.00 0.00 21 1015.3
20191114214624 29 171 0.0 8.0 0.00 0.00 0.00 20 1015.2
20191114214109 29 171 1.6 8.0 0.00 0.00 0.00 20 1015.3
20191114213609 29 170 4.8 4.8 0.00 0.00 0.00 21 1015.3
20191114213124 28 170 3.2 4.8 0.00 0.00 0.00 21 1015.3
20191114212609 28 170 3.2 4.8 0.00 0.00 0.00 21 1015.4
20191114212124 28 170 0.0 6.4 0.00 0.00 0.00 21 1015.3
20191114211609 28 170 1.6 6.4 0.00 0.00 0.00 22 1015.4
20191114211109 28 170 4.8 6.4 0.00 0.00 0.00 22 1015.4
20191114210625 28 170 3.2 6.4 0.00 0.00 0.00 21 1015.6
20191114210109 28 170 6.4 6.4 0.00 0.00 0.00 21 1015.6
20191114205609 28 171 3.2 6.4 0.00 0.00 0.00 21 1015.6
20191114205109 28 171 1.6 6.4 0.00 0.00 0.00 21 1015.7
20191114204609 28 171 3.2 8.0 0.00 0.00 0.00 22 1015.7
20191114204124 28 171 0.0 8.0 0.00 0.00 0.00 21 1015.8
20191114203609 29 171 4.8 8.0 0.00 0.00 0.00 21 1016.0
20191114203109 29 171 3.2 6.4 0.00 0.00 0.00 21 1016.2
20191114202609 28 171 4.8 8.0 0.00 0.00 0.00 21 1016.2
20191114202109 28 171 0.0 8.0 0.00 0.00 0.00 21 1016.2
20191114201609 28 170 1.6 8.0 0.00 0.00 0.00 22 1016.2
20191114201109 28 170 4.8 8.0 0.00 0.00 0.00 22 1016.3
20191114200609 27 170 0.0 4.8 0.00 0.00 0.00 23 1016.2
20191114200109 27 170 0.0 6.4 0.00 0.00 0.00 23 1016.1
20191114195624 27 170 3.2 9.7 0.00 0.00 0.00 23 1016.4
20191114195109 27 170 3.2 9.7 0.00 0.00 0.00 24 1016.4
20191114194625 27 170 3.2 9.7 0.00 0.00 0.00 24 1016.5
20191114194109 27 170 8.0 9.7 0.00 0.00 0.00 24 1016.5
20191114193624 27 169 0.0 9.7 0.00 0.00 0.00 24 1016.8
20191114193109 27 169 4.8 8.0 0.00 0.00 0.00 24 1016.9
20191114192624 27 169 0.0 9.7 0.00 0.00 0.00 24 1016.9
20191114192109 27 169 4.8 9.7 0.00 0.00 0.00 25 1017.0
20191114191625 27 169 3.2 6.4 0.00 0.00 0.00 26 1017.2
20191114191109 26 169 6.4 6.4 0.00 0.00 0.00 26 1017.4
20191114190624 26 169 0.0 3.2 0.00 0.00 0.00 26 1017.4
20191114190109 26 169 3.2 8.0 0.00 0.00 0.00 27 1017.4
20191114185609 25 169 0.0 8.0 0.00 0.00 0.00 28 1017.5
20191114185109 25 169 4.8 8.0 0.00 0.00 0.00 29 1017.5
20191114184609 24 169 4.8 8.0 0.00 0.00 0.00 29 1017.5
20191114184124 24 170 1.6 6.4 0.00 0.00 0.00 29 1017.6
20191114183624 24 171 4.8 8.0 0.00 0.00 0.00 29 1017.7
20191114183124 23 171 4.8 8.0 0.00 0.00 0.00 30 1017.6
20191114182609 23 171 3.2 8.0 0.00 0.00 0.00 30 1017.7
20191114182124 23 172 3.2 9.7 0.00 0.00 0.00 30 1017.7
20191114181609 23 173 1.6 9.7 0.00 0.00 0.00 30 1017.7
20191114181109 23 209 3.2 8.0 0.00 0.00 0.00 30 1017.9
20191114180624 23 214 1.6 8.0 0.00 0.00 0.00 30 1018.0
20191114180109 24 216 0.0 4.8 0.00 0.00 0.00 30 1018.0
20191114175624 24 216 1.6 4.8 0.00 0.00 0.00 30 1018.1
20191114175109 24 216 0.0 4.8 0.00 0.00 0.00 30 1018.2
20191114174609 23 216 3.2 4.8 0.00 0.00 0.00 31 1018.3
20191114174124 23 216 3.2 3.2 0.00 0.00 0.00 31 1018.3
20191114173608 23 216 0.0 3.2 0.00 0.00 0.00 32 1018.2
20191114173124 23 216 0.0 3.2 0.00 0.00 0.00 32 1018.1
20191114172624 23 216 1.6 4.8 0.00 0.00 0.00 33 1018.2
20191114172109 22 216 0.0 4.8 0.00 0.00 0.00 33 1018.3
20191114171624 22 216 1.6 6.4 0.00 0.00 0.00 34 1018.2
20191114171124 22 216 0.0 6.4 0.00 0.00 0.00 34 1018.2
20191114170608 21 216 3.2 4.8 0.00 0.00 0.00 36 1018.3
20191114170124 21 216 0.0 6.4 0.00 0.00 0.00 36 1018.2
20191114165608 21 216 1.6 6.4 0.00 0.00 0.00 37 1018.2
20191114165109 20 216 0.0 4.8 0.00 0.00 0.00 38 1018.2
20191114164609 20 216 3.2 6.4 0.00 0.00 0.00 38 1018.1
20191114164124 20 216 3.2 6.4 0.00 0.00 0.00 37 1018.2
20191114163608 20 216 1.6 4.8 0.00 0.00 0.00 38 1018.1
20191114163124 20 216 1.6 3.2 0.00 0.00 0.00 38 1018.0
20191114162608 20 216 0.0 3.2 0.00 0.00 0.00 38 1017.9
20191114162124 20 216 0.0 0.0 0.00 0.00 0.00 39 1017.8
20191114161608 20 216 0.0 0.0 0.00 0.00 0.00 40 1017.8
20191114161108 19 216 0.0 0.0 0.00 0.00 0.00 41 1017.6